This is the latest recevied weather packets stored in our database for station/object OK1FET-14. If no packets are shown the sender has not sent any weather packets the latest 10 day(s).
| Time | Temp. | Humidity | Pressure | Rain* | Wind** | Luminosity | Snow |
|---|---|---|---|---|---|---|---|
| 1787920363 | 23.33° C | 62% | 1016.1 hPa | - | - | - | - |
| 1787920363 | 23.33° C | 62% | 1016.1 hPa | - | - | - | - |
| 1787920363 | 23.33° C | 62% | 1016.1 hPa | - | - | - | - |
| 1787920363 | 23.33° C | 62% | 1016.1 hPa | - | - | - | - |
| 1787920082 | 22.78° C | 62% | 1016.1 hPa | - | - | - | - |
| 1787920082 | 22.78° C | 62% | 1016.1 hPa | - | - | - | - |
| 1787920082 | 22.78° C | 62% | 1016.1 hPa | - | - | - | - |
| 1787919800 | 22.78° C | 61% | 1016.4 hPa | - | - | - | - |
| 1787919800 | 22.78° C | 61% | 1016.4 hPa | - | - | - | - |
| 1787919519 | 22.78° C | 60% | 1016.9 hPa | - | - | - | - |
| 1787919519 | 22.78° C | 60% | 1016.9 hPa | - | - | - | - |
| 1787919238 | 23.89° C | 59% | 1016.8 hPa | - | - | - | - |
| 1787919238 | 23.89° C | 59% | 1016.8 hPa | - | - | - | - |
| 1787919238 | 23.89° C | 59% | 1016.8 hPa | - | - | - | - |
| 1787918957 | 24.44° C | 57% | 1016.4 hPa | - | - | - | - |
| 1787918957 | 24.44° C | 57% | 1016.4 hPa | - | - | - | - |
| 1787918676 | 24.44° C | 58% | 1015.5 hPa | - | - | - | - |
| 1787918676 | 24.44° C | 58% | 1015.5 hPa | - | - | - | - |
| 1787918675 | 24.44° C | 58% | 1015.5 hPa | - | - | - | - |
| 1787918394 | 24.44° C | 57% | 1015.2 hPa | - | - | - | - |
| 1787918394 | 24.44° C | 57% | 1015.2 hPa | - | - | - | - |
| 1787918394 | 24.44° C | 57% | 1015.2 hPa | - | - | - | - |
| 1787918113 | 25° C | 55% | 1014.9 hPa | - | - | - | - |
| 1787918112 | 25° C | 55% | 1014.9 hPa | - | - | - | - |
| 1787917831 | 24.44° C | 57% | 1014.6 hPa | - | - | - | - |
* Rain since midnight (hover to see other rain measurements)
** Current wind speed in m/s (hover to see current wind gust speed)